Time,TemperatureF,DewpointF,PressureIn,WindDirection,WindDirectionDegrees,WindSpeedMPH,WindSpeedGustMPH,Humidity,HourlyPrecipIn,Conditions,Clouds,dailyrainin,SoftwareType,DateUTC
2013-07-08 00:01:00,79.0,70.0,29.79,ESE,123,0.0,0.0,74,0.00,,,0.00,,2013-07-08 05:01:00,
2013-07-08 00:12:00,79.0,70.0,29.79,ESE,123,0.0,1.0,74,0.00,,,0.00,,2013-07-08 05:12:00,
2013-07-08 00:22:00,78.0,69.0,29.79,ESE,123,0.0,0.0,74,0.00,,,0.00,,2013-07-08 05:22:00,
2013-07-08 00:33:00,78.0,69.0,29.78,ESE,123,0.0,0.0,75,0.00,,,0.00,,2013-07-08 05:33:00,
2013-07-08 00:43:00,78.0,70.0,29.78,ESE,123,0.0,0.0,76,0.00,,,0.00,,2013-07-08 05:43:00,
2013-07-08 00:53:00,77.0,69.0,29.79,ESE,123,0.0,0.0,76,0.00,,,0.00,,2013-07-08 05:53:00,
2013-07-08 01:01:00,77.0,70.0,29.79,ESE,123,0.0,0.0,78,0.00,,,0.00,,2013-07-08 06:01:00,
2013-07-08 01:12:00,77.0,70.0,29.80,ESE,123,0.0,0.0,78,0.00,,,0.00,,2013-07-08 06:12:00,
2013-07-08 01:22:00,76.0,69.0,29.80,ESE,123,0.0,0.0,79,0.00,,,0.00,,2013-07-08 06:22:00,
2013-07-08 01:33:00,76.0,69.0,29.80,ESE,123,0.0,0.0,79,0.00,,,0.00,,2013-07-08 06:33:00,
2013-07-08 01:43:00,75.0,68.0,29.80,ESE,123,0.0,0.0,80,0.00,,,0.00,,2013-07-08 06:43:00,
2013-07-08 01:53:00,75.0,69.0,29.80,ESE,123,0.0,0.0,81,0.00,,,0.00,,2013-07-08 06:53:00,
2013-07-08 02:02:00,75.0,70.0,29.80,ESE,122,0.0,0.0,84,0.00,,,0.00,,2013-07-08 07:02:00,
2013-07-08 02:12:00,75.0,70.0,29.80,ESE,122,0.0,0.0,84,0.00,,,0.00,,2013-07-08 07:12:00,
2013-07-08 02:22:00,75.0,70.0,29.79,ESE,122,0.0,0.0,84,0.00,,,0.00,,2013-07-08 07:22:00,
2013-07-08 02:34:00,75.0,70.0,29.79,ESE,122,0.0,0.0,84,0.00,,,0.00,,2013-07-08 07:34:00,
2013-07-08 02:44:00,75.0,70.0,29.79,ESE,122,0.0,0.0,84,0.00,,,0.00,,2013-07-08 07:44:00,
2013-07-08 02:53:00,75.0,70.0,29.79,ESE,122,0.0,0.0,84,0.00,,,0.00,,2013-07-08 07:53:00,
2013-07-08 03:02:00,75.0,70.0,29.79,ESE,122,0.0,0.0,84,0.00,,,0.00,,2013-07-08 08:02:00,
2013-07-08 03:12:00,75.0,70.0,29.80,ESE,122,0.0,0.0,84,0.00,,,0.00,,2013-07-08 08:12:00,
2013-07-08 03:22:00,75.0,70.0,29.80,ESE,120,0.0,0.0,84,0.00,,,0.00,,2013-07-08 08:22:00,
2013-07-08 03:33:00,75.0,70.0,29.79,ESE,120,0.0,0.0,84,0.00,,,0.00,,2013-07-08 08:33:00,
2013-07-08 03:42:00,74.0,69.0,29.79,ESE,120,0.0,0.0,85,0.00,,,0.00,,2013-07-08 08:42:00,
2013-07-08 03:53:00,74.0,70.0,29.79,NNW,348,1.0,3.0,86,0.00,,,0.00,,2013-07-08 08:53:00,
2013-07-08 04:01:00,74.0,70.0,29.79,NNW,348,0.0,1.0,86,0.00,,,0.00,,2013-07-08 09:01:00,
2013-07-08 04:11:00,74.0,70.0,29.79,NNW,348,0.0,0.0,87,0.00,,,0.00,,2013-07-08 09:11:00,
2013-07-08 04:22:00,74.0,70.0,29.80,NNW,348,0.0,0.0,87,0.00,,,0.00,,2013-07-08 09:22:00,
2013-07-08 04:34:00,74.0,70.0,29.80,NNW,348,0.0,0.0,88,0.00,,,0.00,,2013-07-08 09:34:00,
2013-07-08 04:43:00,74.0,70.0,29.80,NNW,348,0.0,0.0,88,0.00,,,0.00,,2013-07-08 09:43:00,
2013-07-08 04:52:00,74.0,70.0,29.80,NNW,348,0.0,1.0,88,0.00,,,0.00,,2013-07-08 09:52:00,
2013-07-08 05:02:00,74.0,70.0,29.81,NNW,348,0.0,1.0,88,0.00,,,0.00,,2013-07-08 10:02:00,
2013-07-08 05:11:00,74.0,70.0,29.81,NNW,348,0.0,0.0,88,0.00,,,0.00,,2013-07-08 10:11:00,
2013-07-08 05:22:00,73.0,69.0,29.82,NNW,348,0.0,0.0,88,0.00,,,0.00,,2013-07-08 10:22:00,
2013-07-08 05:34:00,73.0,69.0,29.82,NNE,22,1.0,3.0,88,0.00,,,0.00,,2013-07-08 10:34:00,
2013-07-08 05:53:00,73.0,70.0,29.83,North,355,1.0,2.0,89,0.00,,,0.00,,2013-07-08 10:53:00,
2013-07-08 06:02:00,73.0,69.0,29.84,North,5,0.0,2.0,87,0.00,,,0.00,,2013-07-08 11:02:00,
2013-07-08 06:11:00,73.0,69.0,29.84,North,5,0.0,2.0,87,0.00,,,0.00,,2013-07-08 11:11:00,
2013-07-08 06:23:00,73.0,69.0,29.84,North,9,0.0,2.0,87,0.00,,,0.00,,2013-07-08 11:23:00,
2013-07-08 06:33:00,73.0,69.0,29.85,North,9,1.0,3.0,87,0.00,,,0.00,,2013-07-08 11:33:00,
2013-07-08 06:43:00,73.0,69.0,29.85,North,5,1.0,5.0,86,0.00,,,0.00,,2013-07-08 11:43:00,
2013-07-08 07:01:00,74.0,69.0,29.85,North,5,1.0,3.0,84,0.00,,,0.00,,2013-07-08 12:01:00,
2013-07-08 07:11:00,74.0,69.0,29.85,North,5,0.0,1.0,84,0.00,,,0.00,,2013-07-08 12:11:00,
2013-07-08 07:22:00,74.0,68.0,29.85,NW,313,1.0,3.0,83,0.00,,,0.00,,2013-07-08 12:22:00,
2013-07-08 07:34:00,74.0,68.0,29.85,North,11,0.0,2.0,82,0.00,,,0.00,,2013-07-08 12:34:00,
2013-07-08 07:43:00,75.0,69.0,29.85,North,5,0.0,1.0,82,0.00,,,0.00,,2013-07-08 12:43:00,
2013-07-08 07:53:00,75.0,69.0,29.85,North,5,0.0,2.0,82,0.00,,,0.00,,2013-07-08 12:53:00,
2013-07-08 08:02:00,75.0,68.0,29.85,WSW,246,0.0,2.0,80,0.00,,,0.00,,2013-07-08 13:02:00,
2013-07-08 08:11:00,75.0,68.0,29.86,NNW,336,0.0,1.0,80,0.00,,,0.00,,2013-07-08 13:11:00,
2013-07-08 08:22:00,76.0,69.0,29.86,North,5,0.0,2.0,79,0.00,,,0.00,,2013-07-08 13:22:00,
2013-07-08 08:33:00,75.0,68.0,29.86,North,11,1.0,5.0,80,0.00,,,0.00,,2013-07-08 13:33:00,
2013-07-08 08:42:00,74.0,67.0,29.79,North,5,0.0,3.0,80,0.00,,,0.00,,2013-07-08 13:42:00,
2013-07-08 08:53:00,75.0,68.0,29.79,NNE,27,1.0,3.0,80,0.00,,,0.00,,2013-07-08 13:53:00,
2013-07-08 09:02:00,74.0,68.0,29.79,WNW,286,0.0,1.0,81,0.00,,,0.00,,2013-07-08 14:02:00,
2013-07-08 09:12:00,75.0,68.0,29.80,North,0,0.0,2.0,80,0.00,,,0.00,,2013-07-08 14:12:00,
2013-07-08 09:22:00,75.0,68.0,29.80,North,350,0.0,3.0,80,0.00,,,0.00,,2013-07-08 14:22:00,
2013-07-08 09:34:00,75.0,68.0,29.80,NNE,26,0.0,1.0,80,0.00,,,0.00,,2013-07-08 14:34:00,
2013-07-08 09:43:00,75.0,69.0,29.81,North,11,0.0,3.0,81,0.00,,,0.00,,2013-07-08 14:43:00,
2013-07-08 09:53:00,75.0,68.0,29.81,NNE,21,0.0,3.0,80,0.00,,,0.00,,2013-07-08 14:53:00,
2013-07-08 10:02:00,74.0,67.0,29.81,NNE,27,1.0,3.0,80,0.00,,,0.00,,2013-07-08 15:02:00,
2013-07-08 10:11:00,74.0,67.0,29.81,WSW,247,0.0,2.0,80,0.00,,,0.00,,2013-07-08 15:11:00,
2013-07-08 10:22:00,74.0,68.0,29.82,NNE,33,0.0,1.0,81,0.00,,,0.00,,2013-07-08 15:22:00,
2013-07-08 10:33:00,74.0,68.0,29.83,WNW,299,0.0,3.0,81,0.00,,,0.00,,2013-07-08 15:33:00,
2013-07-08 10:43:00,75.0,68.0,29.83,NW,313,0.0,1.0,80,0.00,,,0.00,,2013-07-08 15:43:00,
2013-07-08 10:53:00,75.0,68.0,29.83,North,9,1.0,3.0,79,0.00,,,0.00,,2013-07-08 15:53:00,
2013-07-08 11:01:00,75.0,68.0,29.83,North,9,0.0,1.0,80,0.00,,,0.00,,2013-07-08 16:01:00,
2013-07-08 11:11:00,74.0,67.0,29.83,North,350,0.0,2.0,80,0.00,,,0.00,,2013-07-08 16:11:00,
2013-07-08 11:22:00,76.0,69.0,29.84,NNE,17,0.0,1.0,78,0.00,,,0.00,,2013-07-08 16:22:00,
2013-07-08 11:33:00,76.0,69.0,29.85,NNE,15,0.0,2.0,78,0.00,,,0.00,,2013-07-08 16:33:00,
2013-07-08 11:43:00,75.0,68.0,29.84,North,11,0.0,1.0,79,0.00,,,0.00,,2013-07-08 16:43:00,
2013-07-08 12:07:00,76.0,68.0,29.84,NNE,17,1.0,2.0,77,0.00,,,0.00,,2013-07-08 17:07:00,
2013-07-08 12:14:00,76.0,68.0,29.85,NE,39,0.0,2.0,77,0.00,,,0.00,,2013-07-08 17:14:00,
2013-07-08 12:37:00,75.0,68.0,29.85,NNE,22,0.0,2.0,80,0.00,,,0.00,,2013-07-08 17:37:00,
2013-07-08 12:45:00,75.0,68.0,29.85,North,5,1.0,2.0,79,0.00,,,0.00,,2013-07-08 17:45:00,
2013-07-08 12:54:00,76.0,69.0,29.84,NNE,12,0.0,3.0,78,0.00,,,0.00,,2013-07-08 17:54:00,
2013-07-08 13:07:00,77.0,69.0,29.84,NNE,21,1.0,5.0,77,0.00,,,0.00,,2013-07-08 18:07:00,
2013-07-08 13:21:00,77.0,69.0,29.84,NNE,16,1.0,3.0,76,0.00,,,0.00,,2013-07-08 18:21:00,
2013-07-08 13:32:00,78.0,69.0,29.84,NW,314,0.0,3.0,75,0.00,,,0.00,,2013-07-08 18:32:00,
2013-07-08 13:42:00,79.0,69.0,29.83,NNE,14,1.0,3.0,71,0.00,,,0.00,,2013-07-08 18:42:00,
2013-07-08 13:56:00,79.0,69.0,29.83,NW,322,0.0,3.0,72,0.00,,,0.00,,2013-07-08 18:56:00,
2013-07-08 14:10:00,80.0,69.0,29.83,NW,321,1.0,3.0,70,0.00,,,0.00,,2013-07-08 19:10:00,
2013-07-08 14:19:00,81.0,70.0,29.83,NNE,17,1.0,3.0,69,0.00,,,0.00,,2013-07-08 19:19:00,
2013-07-08 14:50:00,82.0,70.0,29.83,WNW,292,0.0,3.0,67,0.00,,,0.00,,2013-07-08 19:50:00,
2013-07-08 15:19:00,83.0,70.0,29.83,West,265,0.0,1.0,64,0.00,,,0.00,,2013-07-08 20:19:00,
2013-07-08 15:41:00,83.0,69.0,29.83,North,355,0.0,2.0,63,0.00,,,0.00,,2013-07-08 20:41:00,
2013-07-08 16:11:00,84.0,69.0,29.82,North,0,0.0,2.0,61,0.00,,,0.00,,2013-07-08 21:11:00,
2013-07-08 16:19:00,83.0,68.0,29.82,NNE,14,1.0,3.0,60,0.00,,,0.00,,2013-07-08 21:19:00,
2013-07-08 16:49:00,84.0,69.0,29.82,NNE,28,1.0,3.0,60,0.00,,,0.00,,2013-07-08 21:49:00,
2013-07-08 17:21:00,85.0,69.0,29.82,NNE,20,1.0,3.0,58,0.00,,,0.00,,2013-07-08 22:21:00,
2013-07-08 17:41:00,85.0,69.0,29.82,NNE,25,0.0,2.0,58,0.00,,,0.00,,2013-07-08 22:41:00,
2013-07-08 17:52:00,85.0,69.0,29.82,WNW,297,0.0,3.0,58,0.00,,,0.00,,2013-07-08 22:52:00,
2013-07-08 18:19:00,86.0,68.0,29.82,NW,306,0.0,3.0,56,0.00,,,0.00,,2013-07-08 23:19:00,
2013-07-08 18:30:00,86.0,68.0,29.82,North,5,0.0,3.0,56,0.00,,,0.00,,2013-07-08 23:30:00,
2013-07-08 18:42:00,85.0,69.0,29.82,North,0,1.0,2.0,58,0.00,,,0.00,,2013-07-08 23:42:00,
2013-07-08 19:13:00,85.0,69.0,29.82,NNE,22,0.0,1.0,58,0.00,,,0.00,,2013-07-09 00:13:00,
2013-07-08 19:20:00,85.0,68.0,29.82,NNE,21,0.0,1.0,57,0.00,,,0.00,,2013-07-09 00:20:00,
2013-07-08 19:30:00,85.0,69.0,29.82,NNE,21,0.0,1.0,58,0.00,,,0.00,,2013-07-09 00:30:00,
2013-07-08 19:42:00,85.0,70.0,29.82,NNE,20,0.0,0.0,60,0.00,,,0.00,,2013-07-09 00:42:00,
2013-07-08 19:51:00,85.0,70.0,29.82,NNE,12,0.0,1.0,61,0.00,,,0.00,,2013-07-09 00:51:00,
2013-07-08 20:20:00,84.0,71.0,29.82,NNE,12,0.0,0.0,65,0.00,,,0.00,,2013-07-09 01:20:00,
2013-07-08 20:40:00,83.0,71.0,29.83,NNE,12,0.0,0.0,67,0.00,,,0.00,,2013-07-09 01:40:00,
2013-07-08 20:52:00,83.0,71.0,29.83,NNE,12,0.0,0.0,68,0.00,,,0.00,,2013-07-09 01:52:00,
2013-07-08 20:59:00,82.0,70.0,29.83,NNE,12,0.0,0.0,68,0.00,,,0.00,,2013-07-09 01:59:00,
2013-07-08 21:23:00,-999.0,-99.9,29.83,NNE,12,0.0,0.0,69,0.00,,,0.00,,2013-07-09 02:23:00,
2013-07-08 21:29:00,80.0,70.0,29.83,North,11,0.0,0.0,72,0.00,,,0.00,,2013-07-09 02:29:00,
2013-07-08 21:52:00,80.0,71.0,29.83,North,11,0.0,0.0,73,0.00,,,0.00,,2013-07-09 02:52:00,
2013-07-08 21:59:00,78.0,71.0,29.83,North,11,0.0,0.0,78,0.00,,,0.00,,2013-07-09 02:59:00,
2013-07-08 22:42:00,75.0,69.0,29.84,North,9,0.0,0.0,82,0.00,,,0.00,,2013-07-09 03:42:00,
2013-07-08 23:02:00,74.0,68.0,29.84,North,9,0.0,0.0,83,0.00,,,0.00,,2013-07-09 04:02:00,
2013-07-08 23:11:00,74.0,69.0,29.84,North,9,0.0,0.0,84,0.00,,,0.00,,2013-07-09 04:11:00,
2013-07-08 23:22:00,73.0,68.0,29.84,North,9,0.0,0.0,85,0.00,,,0.00,,2013-07-09 04:22:00,
2013-07-08 23:42:00,74.0,68.0,29.84,North,350,0.0,1.0,83,0.00,,,0.00,,2013-07-09 04:42:00,
2013-07-08 23:53:00,74.0,68.0,29.85,North,350,0.0,0.0,82,0.00,,,0.00,,2013-07-09 04:53:00,